Overview Statistics Trail Chart Weather Telemetry Raw packets
 

This is the latest recevied weather packets stored in our database for station/object S51UL-6. If no packets are shown the sender has not sent any weather packets the latest 10 day(s).

<< 54 55 56 57 58 59 60 >>
Time Temp. Humidity Pressure Rain* Wind** Luminosity Snow
1788164515 28.33° C 59% 1016.5 hPa 0 mm - - -
1788163915 28.89° C 61% 1016.3 hPa 0 mm - - -
1788163615 28.33° C 63% 1016.3 hPa 0 mm - - -
1788163015 27.22° C 69% 1016.1 hPa 0 mm - - -
1788162715 26.67° C 71% 1016 hPa 0 mm - - -
1788162415 26.11° C 75% 1016.1 hPa 0.51 mm - - -
1788162115 25° C 78% 1016.1 hPa 0.51 mm - - -
1788161815 24.44° C 80% 1016.1 hPa 0.51 mm - - -
1788161215 22.22° C 86% 1016.1 hPa 1.52 mm - - -
1788160915 21.67° C 87% 1015.9 hPa 1.52 mm - - -
1788160615 21.11° C 86% 1015.9 hPa 1.52 mm - - -
1788160315 20.56° C 87% 1016.1 hPa 2.54 mm - - -
1788159715 19.44° C 88% 1015.9 hPa 2.54 mm - - -
1788159416 18.89° C 89% 1016 hPa 3.05 mm - - -
1788159115 18.33° C 89% 1016 hPa 3.05 mm - - -
1788158847 18.33° C 90% 1016 hPa 3.05 mm - - -
1788158829 18.33° C 90% 1016 hPa 3.05 mm - - -
1788158516 17.78° C 89% 1015.9 hPa 3.05 mm - - -
1788158216 17.22° C 89% 1016.1 hPa 3.05 mm - - -
1788157616 16.67° C 90% 1016 hPa 2.54 mm - - -
1788157016 16.11° C 90% 1015.9 hPa 2.54 mm - - -
1788156717 15.56° C 90% 1016 hPa 1.52 mm - - -
1788156417 15.56° C 90% 1015.9 hPa 1.52 mm - - -
1788156116 15.56° C 90% 1015.9 hPa 1.52 mm - - -
1788155216 14.44° C 89% 1016.1 hPa 2.54 mm - - -

* Rain latest hour (hover to see other rain measurements)
** Current wind speed in m/s (hover to see current wind gust speed)